Temperature
14 14 14 14 14 14 14 14 14 15 15 15 15 15 16 16 15 15 15 14 14 14 14 14 14 14 15 15 15 15 15 15 15 16 16 16 16 16
14 14 14 14 14 14 14 15 15 14 14 15 15 15 15 14 14 14 14 14 14 14 14 14 14 14 14 14 14 15 15 15 15 15 15 15 16 16
14 14 14 14 14 14 14 14 14 14 14 14 14 14 14 14 13 13 13 13 13 13 13 13 13 13 13 13 14 14 14 14 14 14 15 15 15 15
14 14 14 14 14 14 14 14 14 14 14 14 13 13 13 13 13 13 13 13 12 12 12 12 12 12 13 13 13 13 13 13 14 14 14 14 14 14
14 14 14 14 14 14 14 14 14 14 14 14 13 13 12 12 12 12 12 12 12 11 11 12 12 12 12 12 12 13 13 13 13 13 13 13 13 14
13 13 13 14 14 14 14 14 14 14 13 13 12 12 12 11 12 11 11 11 11 11 11 11 11 12 12 12 12 12 12 12 12 13 13 13 13 13
13 13 13 13 13 13 13 13 13 13 13 12 12 11 11 11 11 11 11 11 11 11 11 11 11 11 11 11 11 11 11 12 12 12 12 12 12 13
13 13 13 13 13 13 13 13 13 13 12 12 11 11 11 11 11 11 11 11 10 11 11 10 10 11 10 10 10 10 10 11 11 11 11 11 11 11
13 13 12 12 12 12 12 12 12 12 12 12 11 11 11 11 11 11 11 11 11 11 11 10 10 10 10 10 10 10 10 10 10 10 10 10 10 10
12 12 12 12 12 12 12 11 11 11 11 11 11 11 11 11 11 11 12 11 11 11 11 10 10 10 10 9 9 9 9 9 9 9 9 9 8 8
12 12 12 12 11 11 11 11 11 11 11 11 11 11 11 11 11 12 12 12 11 11 11 10 10 10 9 9 9 9 8 8 8 8 8 8 8 8
11 12 12 12 11 11 11 11 11 11 11 11 11 11 11 11 11 12 12 12 12 11 11 11 10 10 9 9 9 9 8 8 8 8 7 7 7 7
11 11 11 11 11 11 11 11 11 11 11 11 11 11 11 11 11 11 12 12 12 11 11 11 11 10 10 9 9 9 8 8 8 7 7 7 7 7
11 11 11 11 11 11 11 11 11 11 11 11 11 11 11 11 11 11 11 12 12 11 11 11 11 11 10 10 9 9 9 8 8 8 7 7 7 7
10 11 11 11 11 11 11 11 11 11 11 11 11 10 10 10 10 10 11 11 11 11 11 11 11 11 11 10 10 9 9 8 8 8 7 7 7 7
9 10 11 11 11 11 11 11 11 11 11 11 11 10 10 10 10 10 10 10 10 10 10 10 10 10 10 10 10 9 9 9 8 8 8 7 7 7
9 10 10 10 10 10 11 11 11 11 11 11 10 10 10 9 9 9 9 10 10 9 9 9 9 10 10 10 9 9 9 8 8 8 7 7 7 7
8 9 10 10 10 10 10 11 11 11 11 11 10 10 10 10 10 10 10 10 9 9 9 9 9 9 9 9 9 9 9 8 8 7 7 7 7 7
8 9 10 10 10 10 11 11 11 11 11 10 10 10 10 10 10 10 10 10 10 10 9 9 9 9 9 9 9 9 9 9 8 8 7 7 7 7
9 10 11 11 11 11 11 11 11 11 11 10 10 10 10 10 10 10 10 11 10 10 10 10 10 10 10 10 9 9 9 9 9 8 8 8 7 7
10 11 11 11 11 11 11 11 11 10 10 10 10 10 10 10 10 10 11 11 11 10 10 10 10 10 10 10 10 10 10 9 9 9 8 8 8 7
11 11 12 12 12 12 11 11 11 10 10 10 10 10 10 10 10 11 11 11 11 11 10 10 10 10 10 10 10 10 10 10 9 9 9 8 8 8
11 11 12 12 12 12 11 11 11 10 10 10 10 10 10 11 11 11 11 10 10 11 10 10 10 10 10 10 10 10 10 10 10 9 9 9 8 8
Wind_Speed
7 8 7 7 7 8 8 7 7 6 5 3 2 4 5 7 9 10 10 13 15 15 16 16 16 16 17 17 18 17 17 16 16 15 13 11 7 3
6 7 7 7 7 7 7 7 8 7 4 2 3 5 7 8 10 12 13 16 16 17 17 17 17 17 18 18 18 18 18 18 17 17 16 15 15 14
7 7 7 7 6 6 6 6 7 7 5 2 4 7 9 10 9 11 12 11 13 17 18 18 18 18 18 18 18 18 18 17 17 17 16 16 16 15
6 6 7 7 7 6 6 6 6 7 6 8 6 6 8 10 11 10 9 11 12 17 18 18 19 19 18 18 18 18 18 17 16 16 15 15 15 15
5 5 5 6 7 6 6 5 4 6 7 10 9 7 7 8 10 10 11 9 11 15 17 17 18 19 19 18 18 19 19 18 18 17 17 16 16 16
4 3 4 4 5 6 4 3 3 6 10 11 11 9 8 8 9 10 9 7 8 10 12 15 18 19 19 18 18 18 18 19 19 18 18 18 18 17
3 1 2 3 3 3 1 2 6 8 10 11 11 9 8 9 8 6 9 8 8 9 9 8 9 9 12 15 16 17 18 18 18 18 17 17 17 18
4 3 4 3 4 6 8 7 8 10 11 10 9 10 8 6 5 7 8 9 7 6 7 7 7 7 6 10 12 15 17 17 17 17 15 14 13 14
6 6 5 6 5 6 9 12 12 12 11 9 11 9 7 6 6 6 7 7 6 8 8 8 7 8 6 10 13 15 16 16 16 15 14 13 11 10
7 7 7 8 7 8 8 9 9 9 9 8 9 8 6 5 6 7 7 7 7 7 9 7 7 7 7 7 11 12 13 13 13 14 13 13 10 9
8 9 11 10 11 11 10 12 11 9 11 15 14 12 11 9 7 6 7 7 7 6 5 5 7 6 5 4 8 10 10 9 9 9 11 13 12 9
8 10 13 13 13 11 11 12 12 11 11 13 11 10 9 8 8 5 3 5 7 5 3 4 7 6 4 4 5 8 7 7 6 4 4 7 8 7
9 9 10 16 15 12 11 10 13 13 11 10 8 7 6 5 7 6 5 3 6 5 3 3 4 4 4 4 4 5 5 5 6 5 5 3 2 4
7 9 12 17 15 13 9 14 17 14 8 8 7 6 6 7 7 8 7 7 9 8 6 5 3 2 4 5 4 4 4 4 3 2 0 4 5 5
4 10 17 18 15 11 14 17 14 8 7 7 7 7 7 8 7 6 6 6 7 9 11 9 5 3 3 5 5 3 3 3 3 3 2 1 3 4
4 13 18 16 11 12 13 11 7 6 7 7 9 9 7 6 6 6 5 6 7 6 7 10 8 6 5 5 5 4 3 3 3 3 3 4 1 4
8 10 11 10 9 9 9 8 6 6 6 8 10 9 7 6 5 6 5 6 6 5 4 3 4 6 6 4 4 3 3 3 3 1 2 3 3 3
9 10 12 11 11 11 10 8 6 6 7 9 9 8 7 6 5 5 5 6 7 6 5 4 4 3 2 3 3 2 3 3 2 1 1 2 3 2
8 9 10 10 10 10 9 8 7 7 7 8 8 7 6 6 6 5 4 5 6 6 6 6 5 5 6 6 2 3 3 3 1 2 2 2 2 2
8 8 9 9 9 9 9 8 7 8 7 7 7 7 6 6 6 5 4 5 6 6 5 4 2 2 2 2 4 4 6 4 3 2 2 3 3 3
7 6 8 8 8 8 8 8 9 8 7 7 7 7 7 6 6 5 5 6 5 5 5 5 3 2 1 1 1 4 5 9 8 5 3 3 3 2
4 4 5 7 8 8 8 9 10 8 7 7 7 6 6 6 6 6 7 5 3 3 7 6 4 3 2 3 3 2 5 7 11 14 11 8 4 3
3 3 4 7 7 8 9 10 10 9 7 7 8 6 6 6 6 6 7 6 5 5 8 7 6 5 5 5 5 4 4 5 5 5 6 16 21 20
Wind_Direction
283 287 284 278 271 264 259 250 246 253 240 177 124 106 107 107 122 112 108 104 102 98 94 90 87 86 84 83 81 79 76 74 70 64 58 56 59 55
277 278 280 280 279 273 261 251 236 230 231 169 143 139 121 116 111 109 108 105 101 100 97 95 92 89 86 84 82 80 77 75 72 68 63 59 59 60
287 294 299 297 289 281 268 251 236 218 206 128 112 125 119 117 110 112 112 103 102 102 100 97 94 90 87 84 82 80 77 74 72 69 65 61 59 59
292 302 307 309 310 296 277 256 235 208 172 146 133 130 124 121 118 113 109 105 104 103 102 99 96 92 88 84 82 80 77 74 71 69 67 65 63 61
288 300 310 315 314 306 290 265 229 194 157 144 138 129 123 125 120 114 113 112 109 110 103 98 97 93 89 86 83 80 78 75 73 71 69 68 67 65
274 296 315 321 318 307 288 252 176 145 139 139 138 135 130 128 125 127 126 129 127 121 105 103 99 92 89 88 85 83 80 77 75 74 73 73 72 70
229 202 43 34 10 349 311 164 145 136 137 136 136 135 137 140 141 144 140 138 130 129 126 124 115 100 93 88 85 84 82 79 77 75 74 74 73 72
204 165 140 111 82 72 77 90 122 134 137 136 136 141 143 142 141 148 147 144 142 154 141 137 123 107 99 97 101 96 90 85 81 79 79 79 80 78
195 178 174 139 134 112 94 88 90 104 121 130 137 140 145 154 160 164 163 155 140 153 139 127 118 108 107 120 122 109 100 91 83 77 74 73 81 94
192 173 153 151 153 138 123 109 103 103 117 124 124 123 132 147 151 150 138 126 124 137 137 128 132 126 126 134 145 129 117 106 93 80 67 59 63 110
191 171 158 154 154 149 131 118 110 105 102 106 109 113 112 106 112 132 139 136 133 135 134 126 137 133 138 148 168 163 144 129 111 90 70 55 53 103
185 167 160 152 154 150 140 133 128 127 125 120 116 120 116 106 95 95 117 148 144 135 129 121 147 146 148 159 162 175 179 174 164 142 89 64 57 67
179 166 156 151 150 148 146 137 138 137 133 131 127 123 114 98 82 71 63 108 138 121 121 112 154 158 141 147 160 175 174 172 185 200 216 209 95 73
189 167 156 154 149 148 145 144 147 144 139 137 135 135 120 98 88 80 70 67 89 94 63 58 102 133 140 142 139 144 144 137 121 112 143 182 175 136
232 162 151 150 144 144 150 154 158 158 148 147 141 125 112 112 106 97 89 80 73 77 65 47 48 50 85 115 119 123 133 136 113 75 11 273 183 171
174 149 142 146 144 138 150 162 176 172 155 143 126 119 120 128 134 138 131 115 96 80 68 60 47 55 68 77 101 109 102 106 103 82 337 302 288 131
150 152 148 149 148 149 161 176 184 158 142 128 127 133 143 155 157 155 146 134 124 125 119 96 78 84 84 66 90 79 82 83 97 100 302 318 335 90
170 163 157 157 157 160 168 172 167 148 140 133 137 146 158 160 149 147 156 149 146 146 146 148 139 125 116 49 42 84 91 79 22 339 3 0 343 52
191 175 162 161 160 163 165 160 154 143 136 138 146 152 153 144 141 157 166 145 142 143 151 163 175 183 200 189 215 277 148 134 70 0 359 338 310 306
203 177 163 161 159 159 159 156 148 140 140 147 152 151 148 146 153 163 154 143 135 135 145 159 145 102 39 100 151 205 221 181 163 200 271 286 279 297
201 170 161 157 155 155 153 148 142 145 155 154 151 151 152 154 161 167 137 131 147 161 156 132 130 147 80 4 233 173 196 217 208 195 209 251 273 281
183 156 154 149 150 150 143 142 145 153 160 156 147 153 156 161 168 161 141 149 185 175 129 129 158 172 206 249 269 209 183 200 233 234 231 224 217 237
180 165 151 150 145 143 146 151 151 156 162 161 151 163 166 167 163 153 148 169 189 167 144 155 173 198 226 225 235 246 226 209 212 198 232 233 233 241
Height
1467 1465 1463 1462 1461 1460 1459 1460 1460 1459 1460 1461 1462 1463 1465 1467 1469 1471 1473 1474 1475 1477 1478 1479 1480 1481 1481 1482 1483 1484 1486 1487 1489 1491 1493 1495 1497 1499
1462 1460 1458 1456 1455 1453 1452 1452 1453 1454 1455 1456 1457 1460 1462 1464 1467 1469 1471 1472 1474 1476 1477 1478 1479 1480 1481 1481 1482 1483 1484 1485 1487 1488 1489 1491 1492 1493
1457 1455 1453 1451 1449 1447 1446 1446 1446 1448 1450 1452 1454 1457 1459 1462 1465 1467 1469 1471 1473 1475 1477 1478 1479 1480 1481 1482 1482 1483 1484 1485 1486 1487 1488 1489 1490 1491
1452 1450 1448 1446 1444 1442 1441 1440 1440 1442 1445 1448 1451 1454 1457 1461 1464 1466 1468 1471 1473 1475 1477 1478 1479 1480 1481 1482 1483 1483 1484 1485 1485 1486 1487 1488 1489 1489
1448 1446 1444 1442 1439 1437 1436 1435 1435 1437 1440 1444 1448 1452 1456 1459 1463 1466 1468 1471 1473 1476 1478 1479 1480 1481 1482 1483 1484 1484 1485 1485 1486 1486 1487 1488 1488 1489
1443 1442 1440 1438 1436 1434 1432 1432 1432 1434 1437 1441 1445 1450 1454 1459 1462 1465 1468 1472 1474 1477 1479 1480 1482 1483 1484 1485 1486 1486 1486 1487 1487 1488 1488 1488 1488 1489
1439 1438 1437 1435 1433 1431 1429 1429 1430 1432 1435 1439 1443 1449 1453 1457 1462 1465 1468 1472 1476 1478 1479 1482 1484 1485 1486 1487 1488 1488 1488 1489 1489 1489 1489 1489 1489 1488
1434 1434 1433 1433 1431 1429 1428 1428 1430 1432 1434 1438 1443 1448 1453 1457 1462 1466 1469 1472 1477 1481 1481 1484 1485 1487 1488 1489 1490 1490 1490 1490 1490 1489 1489 1489 1489 1488
1430 1431 1431 1430 1430 1429 1429 1430 1432 1434 1437 1440 1444 1449 1453 1458 1462 1466 1470 1473 1476 1479 1483 1485 1487 1488 1490 1491 1491 1491 1491 1491 1491 1491 1490 1489 1489 1489
1425 1426 1427 1428 1429 1429 1430 1431 1433 1436 1439 1443 1446 1451 1455 1459 1463 1468 1471 1475 1478 1481 1483 1485 1488 1489 1491 1492 1492 1493 1493 1492 1492 1491 1491 1490 1490 1489
1419 1421 1424 1426 1428 1429 1431 1432 1435 1438 1442 1446 1450 1453 1457 1461 1465 1469 1472 1475 1478 1481 1484 1485 1487 1489 1491 1492 1493 1493 1494 1493 1493 1492 1492 1491 1490 1489
1414 1417 1420 1423 1426 1429 1431 1433 1435 1439 1443 1448 1452 1456 1459 1463 1466 1469 1471 1474 1476 1480 1483 1485 1486 1488 1491 1492 1493 1493 1494 1494 1493 1493 1492 1491 1491 1489
1408 1412 1416 1420 1424 1428 1432 1434 1437 1441 1445 1449 1453 1456 1460 1463 1465 1468 1470 1472 1475 1478 1482 1484 1486 1488 1489 1491 1492 1493 1494 1494 1493 1493 1492 1491 1490 1489
1403 1407 1412 1417 1422 1427 1432 1435 1438 1442 1446 1450 1453 1457 1460 1462 1464 1467 1470 1472 1474 1477 1480 1483 1485 1487 1488 1490 1492 1493 1494 1494 1493 1493 1492 1491 1490 1488
1397 1403 1409 1414 1420 1426 1431 1435 1439 1443 1447 1450 1453 1456 1459 1461 1464 1467 1469 1472 1474 1477 1479 1482 1484 1486 1487 1489 1491 1493 1494 1494 1493 1492 1491 1490 1489 1488
1393 1400 1406 1412 1418 1424 1430 1435 1439 1443 1447 1450 1452 1455 1458 1461 1463 1466 1468 1470 1473 1476 1479 1481 1484 1486 1487 1489 1491 1492 1493 1494 1492 1491 1491 1490 1489 1488
1391 1397 1404 1410 1416 1422 1428 1433 1438 1442 1446 1448 1450 1454 1457 1461 1463 1466 1468 1470 1473 1475 1477 1481 1483 1486 1488 1489 1491 1492 1492 1492 1491 1490 1490 1489 1488 1486
1391 1397 1402 1408 1414 1420 1426 1431 1436 1441 1444 1447 1450 1453 1457 1460 1463 1466 1469 1471 1473 1475 1477 1480 1483 1486 1488 1489 1491 1490 1491 1490 1490 1489 1488 1487 1486 1485
1391 1397 1403 1408 1414 1419 1425 1430 1434 1439 1443 1446 1449 1453 1457 1460 1463 1466 1469 1472 1474 1476 1478 1481 1483 1484 1486 1487 1488 1489 1489 1488 1488 1487 1486 1485 1484 1482
1391 1397 1403 1408 1413 1419 1424 1429 1433 1437 1441 1445 1449 1453 1456 1459 1463 1466 1468 1471 1474 1476 1478 1480 1482 1483 1484 1485 1486 1487 1487 1487 1486 1485 1484 1483 1482 1480
1391 1397 1402 1407 1413 1418 1423 1427 1431 1436 1440 1444 1448 1452 1455 1459 1462 1465 1468 1470 1473 1475 1477 1479 1480 1481 1482 1484 1485 1484 1485 1485 1484 1483 1482 1480 1479 1477
1391 1397 1403 1408 1413 1418 1422 1426 1430 1435 1440 1444 1447 1451 1455 1458 1461 1464 1466 1469 1472 1474 1475 1477 1478 1479 1481 1482 1482 1483 1482 1482 1482 1481 1479 1478 1477 1474
1392 1398 1403 1408 1413 1418 1422 1426 1430 1434 1439 1443 1446 1450 1454 1457 1460 1463 1465 1468 1471 1473 1474 1475 1477 1478 1479 1480 1481 1481 1480 1480 1479 1477 1476 1475 1473 1471